Regional Weather Roundup
Issued by NWS

Home | Current Version | Previous Version | Text Only | Print | Product List | Glossary Off
Versions: 1 2 3 4 5 6 7 8 9 10 11 12 13 14 15 16 17 18 19 20 21 22 23 24 25 26 27 28

000
ASUS45 KCYS 251710
RWRWY

WYOMING REGIONAL WEATHER ROUNDUP
NATIONAL WEATHER SERVICE CHEYENNE WY
1100 AM MDT SAT MAR 25 2017

NOTE:  "FAIR" INDICATES FEW OR NO CLOUDS BELOW 12,000 FEET
WITH NO SIGNIFICANT WEATHER AND/OR OBSTRUCTIONS TO VISIBILITY.

WYZ001-251800-
YELLOWSTONE NATIONAL PARK

CITY           SKY/WX    TMP DP  RH WIND       PRES   REMARKS
LK YELLOWSTONE   N/A     34  30  85 VRB3      30.02F
W YELLOWSTONE  NOT AVBL

$$
WYZ002>013-054>058-071-098>099-251800-
NORTHERN WYOMING

CITY           SKY/WX    TMP DP  RH WIND       PRES   REMARKS
JACKSON        PTSUNNY   37  37 100 SW6       30.02F WCI  33
CODY           FAIR      46  32  58 N16       29.98F
GREYBULL       CLOUDY    49  35  58 W5        29.93F
WORLAND        CLOUDY    45  37  73 NE5       29.94S
SHERIDAN       CLOUDY    51  35  54 NW13      30.00R
BUFFALO        CLOUDY    53  31  42 N20G26    29.99S
GILLETTE       FAIR      56  31  38 N14       29.95S
HULETT         PTSUNNY   54  30  40 CALM      29.96S
NEWCASTLE      FAIR      52  27  37 SW5       29.95F

$$
WYZ014>020-022>026-101>103-251800-
CENTRAL WYOMING

CITY           SKY/WX    TMP DP  RH WIND       PRES   REMARKS
BIG PINEY      FLURRIES  34  34 100 CALM      30.03F
PINEDALE       LGT SNOW  34  32  93 CALM      30.04F
DUBOIS         CLOUDY    39  30  70 NW6       29.99S WCI  35
LANDER         FAIR      50  31  48 SE13      29.94F
RIVERTON       PTSUNNY   50  31  48 N5        29.96F
CASPER         FAIR      51  28  41 SW14      29.96F
DOUGLAS        PTSUNNY   50  34  54 SW12      29.96F

$$
WYZ021-027>030-104>119-251800-
SOUTHERN WYOMING

CITY           SKY/WX    TMP DP  RH WIND       PRES   REMARKS
EVANSTON       FLURRIES  38  29  70 W10       30.02R WCI  31
KEMMERER         N/A     37  30  75 N5        30.01F WCI  34
FORT BRIDGER   CLOUDY    44  30  57 W3        30.03F
ROCK SPRINGS   FAIR      45  32  60 SE5       30.00F
DIXON            N/A     55  23  28 SW12G20   30.04F
RAWLINS        FAIR      52  21  29 S16       30.01F
SARATOGA       FAIR      46  23  39 S9        30.04F
LARAMIE        FAIR      50  19  29 SW16      30.02S
CHEYENNE       FAIR      52  27  38 S10       30.02F
TORRINGTON     FAIR      53  31  42 S7        29.96F
PINE BLUFFS    FAIR      54  30  40 SW13G20   30.02S

$$




USA.gov is the U.S. government's official web portal to all federal, state and local government web resources and services.